www.pogodaiklimat.ru
ПОГОДА в Филадельфии
Время
и дата
05:35 01.12
05:55 01.12
06:15 01.12
06:35 01.12
06:55 01.12
07:15 01.12
07:35 01.12
07:55 01.12
08:15 01.12
08:35 01.12
08:55 01.12
09:15 01.12
09:35 01.12
09:55 01.12
10:15 01.12
10:35 01.12
10:55 01.12
11:15 01.12
11:35 01.12
11:55 01.12
12:15 01.12
12:35 01.12
12:55 01.12
13:15 01.12
13:35 01.12
13:55 01.12
14:15 01.12
14:35 01.12
14:55 01.12
15:15 01.12
15:35 01.12
15:55 01.12
16:15 01.12
16:35 01.12
16:55 01.12
17:15 01.12
17:30 01.12
17:55 01.12
18:15 01.12
18:35 01.12
18:55 01.12
19:15 01.12
19:35 01.12
19:55 01.12
20:15 01.12
20:35 01.12
20:55 01.12
21:15 01.12
Ветер
(напр.,м/с)
Видим. Явления Облачность Т
(С)
Тd
(С)
f
(%)
Тe
(С)
Тes
(С)
Комфортность P
(гПа)
Po
(гПа)
Тmin
(С)
Tmax
(С)
R
(мм)
R24
(мм)
S
(см)
СЗ 5
{9}
16 км 5/5 1500 м +1.7 -8.1 48 -3 -3 1010.1
З 5 16 км ясно +1.4 -8.1 49 -4 -4 1010.5
З 8
{11}
16 км ясно +1.3 -9.0 46 -5 -5 1010.5
З 5
{11}
16 км ясно +1.1 -9.6 45 -4 -4 1010.8
З 8
{12}
16 км ясно +1.0 -9.4 46 -5 -5 1011.5 +0.8 +1.8
З 5
{11}
16 км ясно +1.0 -9.2 46 -4 -4 1012.1
З 4
{9}
16 км ясно +1.1 -8.9 47 -3 -3 1012.8
З 5
{10}
16 км ясно +1.3 -8.7 47 -4 -4 1013.5
З 6
{9}
16 км ясно +1.6 -8.9 46 -4 -4 1013.5
З 6
{8}
16 км ясно +1.9 -8.9 45 -3 -3 1013.8
СЗ 5
{10}
16 км 5/5 1650 м +2.3 -9.0 43 -2 -2 1014.1
З 8
{12}
16 км 8/8 1650 м +2.4 -9.0 43 -4 -3 1014.5
З 8
{11}
16 км 5/5 1500 м +2.8 -8.5 43 -3 -3 1014.8
СЗ 6
{12}
16 км 5/5 1500 м +3.0 -8.5 43 -2 -2 1015.1
СЗ 6
{10}
16 км 8/8 1500 м +3.0 -8.3 43 -2 -2 1015.8
З 5
{10}
16 км 10/10 1500 м +4.0 -7.6 43 0 0 1016.2
З 7
{11}
16 км 8/8 1500 м +3.5 -7.9 43 -2 -2 1015.8
З 4
{8}
16 км 5/5 1500 м +4.0 -7.5 43 0 +2 1015.5
СЗ 5
{8}
16 км 5/5 1500 м +4.4 -7.2 43 0 +1 1015.5
СЗ 6
{8}
16 км 5/5 1500 м +3.9 -7.4 43 -1 0 1015.5
СЗ 4
{9}
16 км ясно +4.3 -7.2 43 +1 +4 1015.5
СЗ 7
{10}
16 км 5/5 1500 м +4.6 -7.0 43 0 0 1015.8
З 5
{9}
16 км 5/5 1500 м +4.8 -7.1 42 +1 +2 1015.8 +0.9 +4.9
СЗ 5
{10}
16 км 5/5 1500 м +4.8 -7.3 41 +1 +2 1016.2
З 6
{9}
16 км 5/5 1500 м +4.9 -6.9 42 +1 +1 1016.2
З 6
{12}
16 км 5/5 1500 м +5.1 -7.0 41 +1 +2 1016.5
З 3
{10}
16 км 5/5 1500 м +5.3 -6.4 43 +3 +4 1016.5
З 5 16 км 5/5 1500 м +5.2 -6.8 42 +1 +2 1016.5
СЗ 4
{10}
16 км ясно +5.2 -6.7 42 +2 +4 1016.8
СЗ 3
{10}
16 км ясно +4.9 -6.9 42 +2 +3 1017.2
СЗ 5
{8}
16 км ясно +4.7 -6.8 43 +1 +2 1017.5
СЗ 4
{8}
16 км ясно +4.3 -7.0 44 +1 +2 1017.8
З 4 16 км ясно +4.0 -7.2 44 0 +1 1018.5
З 4 16 км ясно +3.3 -6.8 47 -1 0 1018.5
З 3 16 км ясно +3.1 -6.9 48 0 0 1018.8
З 3 16 км ясно +2.9 -7.2 47 0 0 1019.2
СЗ 3 16 км ясно +2.6 -7.0 49 -1 -1 1019.5
СЗ 3 16 км ясно +2.5 -7.0 49 -1 -1 1019.8
З 3 16 км ясно +2.2 -7.1 50 -1 -1 1019.8
З 2 16 км ясно +1.9 -7.0 52 -1 -1 1019.8
СЗ 3 16 км ясно +1.7 -7.1 52 -2 -2 1019.8 +1.6 +5.5
СЗ 3 16 км ясно +1.4 -7.1 53 -2 -2 1019.8
З 2 16 км ясно +1.2 -7.1 54 -2 -2 1020.2
З 2 16 км ясно +0.8 -7.0 56 -2 -2 1020.2
СЗ 2 16 км ясно +0.8 -7.1 55 -2 -2 1019.8
СЗ 3 16 км ясно +0.7 -7.0 56 -3 -3 1020.2
СЗ 3 16 км ясно +0.7 -7.0 56 -3 -3 1020.2
СЗ 3 16 км ясно +0.7 -7.2 55 -3 -3 1020.2
Местоположение метеостанции Wings Field Airport: широта 40.1375 долгота -75.2650 высота над уровнем моря 92 м.
В архиве по умолчанию представлена погода в Филадельфии за последние 1-2 суток. Обновление информации о фактической погоде в базе происходит ежечасно! Архивные данные за месяц целиком и за предыдущие месяцы Вы можете получить, выбрав интересующий диапазон дат из раскрывающегося списка и нажав кнопку "Ввод!".
Внимание! Архив погоды МЕТАР в базе сайта по станциям, не включенным в климатический монитор, хранится не более 60 дней. Нет смысла пытаться выбрать более раннюю дату.
*Определитесь, кто Вы:
Внимание! Время в таблицах - местное (без учета летнего времени). Для получения всемирного времени необходимо вычесть поправку, которая равна -5 ч.
Смотрите также архив погоды в соседних городах и на ближайших метеорологических станциях:
Партнеры нашего сайта:      
Пояснения к столбцам:
  • Ветер - указаны скорость ветра в м/с - средняя за 10 мин, порывы в срок и между сроками (в фигурных скобках) и направление, откуда дует ветер: С - северный,
  • СВ - северо-восточный, В - восточный, ЮВ - юго-восточный, Ю - южный, ЮЗ - юго-западный, З - западный, СЗ - северо-западный.
  • Видимость - горизонтальная дальность видимости в метрах или километрах. При видимости от 1 до 10 км при отсутствии осадков обычно наблюдается дымка, при ухудшении видимости до 1 км и менее - туман. В сухую погоду видимость может ухудшаться дымом, пылью или мглою.
  • Явления - указаны атмосферные явления, наблюдавшиеся в срок или в последний час перед сроком; фигурными скобками обозначены явления, наблюдавшиеся между сроками (за 1-3 часа до срока); квадратными скобками обозначены град или гололедные отложения с указанием их диаметра в мм.
  • Облачность - указаны через наклонную черту общая и нижняя облачность в баллах и высота нижней границы облаков в метрах; квадратными скобками обозначены формы облаков: Ci - перистые, Cs - перисто-слоистые, Cc - перисто-кучевые, Ac - высококучевые, As - высокослоистые, Sc - слоисто-кучевые, Ns - слоисто-дождевые, Cu - кучевые, Cb - кучево-дождевые. Подробнее классификацию облаков см. в Атласе облаков (PDF).
  • T - Температура воздуха - температура, измеренная на высоте 2 м над землей.
  • Td - Температура точки росы - температура, при понижении до которой содержащийся в воздухе водяной пар достигнет насыщения.
  • f - Относительная влажность воздуха - влажноcть воздуха, измеренная на высоте 2 м над землей.
  • Te - Эффективная температура - температура, которую ощущает одетый по сезону человек в тени. Характеристика душности погоды. При расчете учитывается влияние влажности воздуха и скорости ветра на теплоощущения человека.
  • Tes - Эффективная температура на солнце - температура, которую ощущает человек, с поправкой на солнечный нагрев. Характеристика знойности погоды. Зависит от высоты солнца над горизонтом, облачности и скорости ветра. Ночью, в пасмурную погоду, а также при ветре 12 м/с и более поправка равна нулю.
  • P - Атмосферное давление - приведенное к уровню моря атмосферное давление.
  • Po - Атмосферное давление - измеренное на уровне метеостанции атмосферное давление.
  • Tmin - Минимальная температура - минимум температуры воздуха на высоте 2 м над землей.
  • Tmax - Максимальная температура - максимум температуры воздуха на высоте 2 м над землей.
  • R - Количество осадков - Количество выпавших осадков за период времени, мм. При наведении курсора мыши на число - период времени, за который выпало указанное количество осадков.
  • R24 - Количество осадков - Количество выпавших осадков за 24 часа, мм.
  • S - Снежный покров - Высота снежного покрова, см. При наведении курсора мыши на число - состояние снежного покрова и степень покрытия местности в баллах.